• In Uzbekistan
  • List of Countries
  • For 7 days
  • Water Temperature
  • Satellite Maps
  • Weather Map
  • Weather Widgets
  • user-avatar
    Login

    Hourly Weather Ischgl

    Today, 16 January, Wednesday

    Time Temperature Precipitation Wind Pressure Humidity
    00:00 -13°C° 0 mm 2 mps 568 mmHg 59%
    01:00 -10°C° 0 mm 2 mps 569 mmHg 55%
    02:00 -10°C° 0 mm 2 mps 569 mmHg 53%
    03:00 -10°C° 0 mm 2 mps 568 mmHg 52%
    04:00 -10°C° 0 mm 2 mps 568 mmHg 50%
    05:00 -10°C° 0 mm 2 mps 568 mmHg 49%
    06:00 -10°C° 0 mm 2 mps 568 mmHg 48%
    07:00 -10°C° 0 mm 2 mps 568 mmHg 47%
    08:00 -8°C° 0 mm 2 mps 569 mmHg 50%
    09:00 -7°C° 0 mm 2 mps 569 mmHg 54%
    10:00 -5°C° 0 mm 2 mps 570 mmHg 57%
    11:00 -4°C° 0 mm 2 mps 570 mmHg 65%
    12:00 -3°C° 0 mm 2 mps 570 mmHg 72%
    13:00 -2°C° 0 mm 2 mps 571 mmHg 80%
    14:00 -3°C° 0 mm 2 mps 570 mmHg 77%
    15:00 -3°C° 0 mm 2 mps 569 mmHg 75%
    16:00 -4°C° 0 mm 2 mps 569 mmHg 73%
    17:00 -7°C° 0 mm 3 mps 568 mmHg 72%
    18:00 -9°C° 0 mm 3 mps 567 mmHg 72%
    19:00 -10°C° 0 mm 3 mps 567 mmHg 71%
    20:00 -10°C° 0 mm 3 mps 566 mmHg 74%
    21:00 -12°C° 0 mm 3 mps 566 mmHg 76%
    22:00 -12°C° 0 mm 3 mps 566 mmHg 78%
    23:00 -12°C° 0 mm 3 mps 566 mmHg 80%

    Tomorrow, 17 January, Thursday

    Time Temperature Precipitation Wind Pressure Humidity
    00:00 -12°C° 0 mm 3 mps 566 mmHg 82%
    01:00 -12°C° 0 mm 3 mps 566 mmHg 84%
    02:00 -12°C° 0 mm 3 mps 566 mmHg 85%
    03:00 -12°C° 0 mm 3 mps 565 mmHg 86%
    04:00 -13°C° 0 mm 3 mps 565 mmHg 88%
    05:00 -12°C° 0 mm 3 mps 565 mmHg 88%
    06:00 -12°C° 0 mm 3 mps 565 mmHg 88%
    07:00 -12°C° 0 mm 3 mps 565 mmHg 88%
    08:00 -10°C° 0 mm 3 mps 565 mmHg 87%
    09:00 -9°C° 0 mm 3 mps 566 mmHg 87%
    10:00 -8°C° 0 mm 3 mps 566 mmHg 86%
    11:00 -7°C° 0 mm 3 mps 566 mmHg 85%
    12:00 -6°C° 0 mm 3 mps 567 mmHg 83%
    13:00 -5°C° 0 mm 3 mps 567 mmHg 81%
    14:00 -5°C° 0.2 mm 2 mps 567 mmHg 84%
    15:00 -6°C° 0.2 mm 2 mps 566 mmHg 87%
    16:00 -6°C° 0.2 mm 2 mps 566 mmHg 90%
    17:00 -7°C° 0.4 mm 2 mps 566 mmHg 92%
    18:00 -8°C° 0.4 mm 2 mps 566 mmHg 94%
    19:00 -9°C° 0.4 mm 2 mps 566 mmHg 95%
    20:00 -10°C° 0.3 mm 2 mps 566 mmHg 96%
    21:00 -10°C° 0.3 mm 2 mps 566 mmHg 96%
    22:00 -12°C° 0.3 mm 2 mps 566 mmHg 96%
    23:00 -13°C° 0.1 mm 2 mps 565 mmHg 96%

    Day after tomorrow, 18 January, Friday

    Time Temperature Precipitation Wind Pressure Humidity
    00:00 -14°C° 0.1 mm 2 mps 565 mmHg 97%
    01:00 -15°C° 0.1 mm 2 mps 565 mmHg 97%
    02:00 -16°C° 0 mm 2 mps 564 mmHg 97%
    03:00 -16°C° 0 mm 2 mps 564 mmHg 97%
    04:00 -17°C° 0 mm 2 mps 564 mmHg 97%
    05:00 -16°C° 0 mm 1 mps 564 mmHg 96%
    06:00 -16°C° 0 mm 1 mps 564 mmHg 95%
    07:00 -17°C° 0 mm 1 mps 564 mmHg 94%
    08:00 -16°C° 0 mm 1 mps 564 mmHg 91%
    09:00 -15°C° 0 mm 1 mps 565 mmHg 88%
    10:00 -13°C° 0 mm 1 mps 566 mmHg 85%
    11:00 -12°C° 0 mm 1 mps 567 mmHg 80%
    12:00 -10°C° 0 mm 1 mps 567 mmHg 75%
    13:00 -9°C° 0 mm 1 mps 567 mmHg 70%
    14:00 -10°C° 0 mm 1 mps 567 mmHg 74%
    15:00 -10°C° 0 mm 1 mps 567 mmHg 78%
    16:00 -10°C° 0 mm 1 mps 566 mmHg 81%
    17:00 -12°C° 0 mm 1 mps 565 mmHg 79%
    18:00 -16°C° 0 mm 2 mps 565 mmHg 77%
    19:00 -17°C° 0 mm 2 mps 564 mmHg 75%
    20:00 -17°C° 0 mm 2 mps 564 mmHg 74%
    21:00 -17°C° 0 mm 2 mps 564 mmHg 72%
    22:00 -18°C° 0 mm 3 mps 564 mmHg 71%
    23:00 -16°C° 0 mm 2 mps 565 mmHg 74%

    19 January, Saturday

    Time Temperature Precipitation Wind Pressure Humidity
    00:00 -15°C° 0 mm 2 mps 565 mmHg 77%
    01:00 -15°C° 0 mm 2 mps 565 mmHg 80%
    02:00 -14°C° 0 mm 2 mps 565 mmHg 82%
    03:00 -14°C° 0 mm 2 mps 565 mmHg 84%
    04:00 -12°C° 0 mm 1 mps 565 mmHg 86%
    05:00 -12°C° 0.1 mm 1 mps 565 mmHg 86%
    06:00 -12°C° 0.1 mm 1 mps 565 mmHg 87%
    07:00 -12°C° 0.1 mm 1 mps 565 mmHg 87%
    08:00 -11°C° 0.1 mm 1 mps 565 mmHg 86%
    09:00 -10°C° 0.1 mm 1 mps 566 mmHg 86%
    10:00 -9°C° 0.1 mm 1 mps 566 mmHg 85%
    11:00 -9°C° 0.1 mm 1 mps 566 mmHg 83%
    12:00 -8°C° 0.1 mm 1 mps 566 mmHg 81%
    13:00 -7°C° 0.1 mm 1 mps 566 mmHg 79%
    14:00 -7°C° 0.1 mm 1 mps 566 mmHg 83%
    15:00 -8°C° 0.1 mm 1 mps 566 mmHg 87%
    16:00 -8°C° 0.1 mm 1 mps 565 mmHg 90%
    17:00 -9°C° 0.1 mm 0 mps 565 mmHg 92%
    18:00 -10°C° 0.1 mm 0 mps 564 mmHg 94%
    19:00 -11°C° 0.1 mm 0 mps 564 mmHg 95%
    20:00 -12°C° 0.1 mm 0 mps 564 mmHg 94%
    21:00 -12°C° 0.1 mm 1 mps 563 mmHg 93%
    22:00 -13°C° 0.1 mm 1 mps 563 mmHg 92%
    23:00 -13°C° 0 mm 1 mps 563 mmHg 90%

    20 January, Sunday

    Time Temperature Precipitation Wind Pressure Humidity
    00:00 -13°C° 0 mm 1 mps 563 mmHg 89%
    01:00 -14°C° 0 mm 1 mps 563 mmHg 87%
    02:00 -14°C° 0 mm 1 mps 563 mmHg 87%
    03:00 -14°C° 0 mm 1 mps 563 mmHg 86%
    04:00 -14°C° 0 mm 1 mps 562 mmHg 85%
    05:00 -14°C° 0 mm 1 mps 563 mmHg 86%
    06:00 -14°C° 0 mm 1 mps 563 mmHg 86%
    07:00 -14°C° 0 mm 1 mps 563 mmHg 87%
    08:00 -12°C° 0 mm 0 mps 564 mmHg 86%
    09:00 -11°C° 0 mm 0 mps 565 mmHg 86%
    10:00 -10°C° 0 mm 0 mps 566 mmHg 85%
    11:00 -9°C° 0 mm 1 mps 567 mmHg 83%
    12:00 -8°C° 0 mm 1 mps 567 mmHg 82%
    13:00 -7°C° 0 mm 1 mps 567 mmHg 80%
    14:00 -8°C° 0.1 mm 1 mps 567 mmHg 83%
    15:00 -8°C° 0.1 mm 1 mps 567 mmHg 87%
    16:00 -8°C° 0.1 mm 1 mps 567 mmHg 91%
    17:00 -10°C° 0 mm 1 mps 566 mmHg 93%
    18:00 -12°C° 0 mm 1 mps 566 mmHg 94%
    19:00 -14°C° 0 mm 1 mps 565 mmHg 96%
    20:00 -14°C° 0 mm 1 mps 565 mmHg 95%
    21:00 -15°C° 0 mm 1 mps 565 mmHg 94%
    22:00 -16°C° 0 mm 1 mps 565 mmHg 92%
    23:00 -16°C° 0 mm 1 mps 565 mmHg 90%

    21 January, Monday

    Time Temperature Precipitation Wind Pressure Humidity
    00:00 -16°C° 0 mm 1 mps 565 mmHg 89%
    01:00 -16°C° 0 mm 1 mps 565 mmHg 87%
    02:00 -16°C° 0 mm 1 mps 565 mmHg 85%
    03:00 -16°C° 0 mm 1 mps 565 mmHg 84%
    04:00 -16°C° 0 mm 1 mps 565 mmHg 82%
    05:00 -16°C° 0 mm 1 mps 566 mmHg 81%
    06:00 -18°C° 0 mm 2 mps 566 mmHg 79%
    07:00 -18°C° 0 mm 2 mps 566 mmHg 77%
    08:00 -17°C° 0 mm 2 mps 567 mmHg 77%
    09:00 -15°C° 0 mm 2 mps 568 mmHg 77%
    10:00 -13°C° 0 mm 2 mps 569 mmHg 76%
    11:00 -12°C° 0 mm 2 mps 570 mmHg 73%
    12:00 -9°C° 0 mm 2 mps 570 mmHg 70%
    13:00 -7°C° 0 mm 1 mps 571 mmHg 67%
    14:00 -8°C° 0 mm 1 mps 571 mmHg 71%
    15:00 -8°C° 0 mm 1 mps 570 mmHg 75%
    16:00 -9°C° 0 mm 1 mps 570 mmHg 79%
    17:00 -10°C° 0 mm 1 mps 569 mmHg 78%
    18:00 -14°C° 0 mm 2 mps 569 mmHg 76%
    19:00 -15°C° 0 mm 2 mps 568 mmHg 75%
    20:00 -15°C° 0 mm 2 mps 568 mmHg 73%
    21:00 -15°C° 0 mm 2 mps 568 mmHg 72%
    22:00 -15°C° 0 mm 2 mps 568 mmHg 70%
    23:00 -15°C° 0 mm 2 mps 568 mmHg 71%
    Show more